SCP
0 1 1 1 0 0 1 1 1 1 1 1 1 1 0 0 0 0 0 0 0 0 0 0 0 0 0 0 0 0 0 0 0 0 0 0 0 0 0 0 0 0 0
1 1 1 1 0 0 1 1 1 1 1 1 1 1 1 0 0 0 0 0 0 0 0 0 0 0 0 0 0 0 0 0 0 0 0 0 0 0 0 0 0 0 0
1 1 1 1 1 1 1 1 1 1 1 1 1 1 1 1 0 0 0 0 0 0 0 0 0 0 0 0 0 0 0 0 0 0 0 0 0 0 0 0 0 0 0
1 1 1 1 1 1 1 1 1 1 1 1 1 1 1 1 1 0 0 0 0 0 0 0 0 0 0 0 0 0 0 0 0 0 0 0 0 0 0 0 0 0 0
1 1 1 1 1 1 1 1 1 1 1 1 1 1 1 1 1 0 0 0 0 0 0 0 0 0 0 0 0 0 0 0 0 0 0 0 0 0 0 0 0 0 0
1 1 1 1 1 1 1 1 1 1 1 1 1 1 1 1 1 0 0 0 0 0 0 0 0 0 0 0 0 0 0 0 0 0 0 0 0 0 0 0 0 0 0
1 1 1 1 1 1 1 1 1 1 1 2 2 2 2 1 1 1 0 0 0 0 0 0 0 0 0 0 0 0 0 0 0 0 0 0 0 0 0 0 0 0 0
1 1 1 1 1 1 1 1 1 1 2 2 2 2 2 2 1 1 1 1 1 1 0 0 0 0 0 0 0 0 0 0 0 0 0 0 0 0 0 0 0 0 0
1 1 1 1 1 1 1 1 1 1 1 2 2 2 2 2 1 1 1 1 1 1 1 1 1 1 1 1 1 1 0 0 0 0 0 0 1 0 0 0 0 0 0
1 1 1 1 1 1 1 1 1 1 1 2 2 2 1 1 1 1 1 1 1 1 1 1 1 1 1 1 1 1 1 1 0 0 0 1 1 1 0 0 0 0 0
2 2 2 1 1 1 1 2 2 2 2 2 2 2 2 1 1 1 1 1 1 1 1 1 1 1 1 1 1 1 1 1 1 1 1 1 1 1 1 0 0 1 1
2 2 2 2 2 2 2 2 2 3 3 3 3 3 3 2 2 1 1 1 1 1 1 1 1 1 1 1 1 1 1 1 1 1 1 2 1 1 1 1 1 1 1
3 3 3 3 3 3 3 3 3 3 3 3 4 5 5 4 3 2 2 2 2 1 1 1 1 1 1 1 1 1 1 1 1 1 1 2 1 1 1 1 1 1 1
4 5 5 5 5 4 4 4 3 3 4 4 5 6 6 5 4 3 3 2 2 2 2 2 2 2 1 1 1 1 1 1 1 1 2 2 2 1 1 1 1 1 1
6 7 6 6 5 5 5 5 4 4 4 4 5 5 5 5 4 4 3 3 3 3 2 2 2 2 2 2 1 1 1 1 1 1 2 2 2 1 1 1 1 1 1
7 7 7 5 5 5 5 5 5 5 5 5 5 5 4 4 4 4 4 4 4 3 3 3 2 2 2 2 1 1 1 1 1 1 1 2 2 1 1 1 1 1 1
7 6 6 5 5 5 5 6 6 6 6 5 5 4 4 3 4 5 5 4 4 4 4 3 3 2 2 2 2 1 1 1 1 1 1 2 2 2 1 1 1 1 1
6 6 5 5 5 5 5 5 6 6 6 5 4 4 3 3 4 5 5 4 4 4 4 4 3 3 2 2 2 2 2 2 2 2 2 2 2 2 2 2 2 2 2
6 6 6 5 5 5 5 5 5 5 5 5 4 4 4 3 3 4 4 4 4 4 4 3 3 3 3 2 2 2 2 2 2 2 2 2 2 2 2 2 2 2 2
7 7 7 7 6 5 4 4 4 4 6 6 6 5 4 4 3 3 3 4 4 4 3 3 3 3 3 2 2 2 2 2 2 2 2 2 2 2 2 2 2 2 2
8 7 7 8 7 5 4 4 3 4 5 6 6 4 4 4 3 3 3 4 4 5 4 3 3 3 3 2 2 2 2 2 2 1 1 2 2 1 1 2 2 2 2
6 6 6 6 5 4 4 3 3 2 3 4 4 3 3 3 3 3 3 4 4 4 4 3 2 2 2 2 2 2 2 2 1 1 1 1 1 1 1 1 1 2 2
4 4 4 3 3 3 3 2 2 2 2 2 2 2 2 2 2 2 3 3 3 3 2 2 2 2 2 2 2 2 2 2 2 2 2 2 1 1 1 1 1 1 1
2 2 2 2 2 2 2 1 1 1 1 1 1 1 2 2 2 2 2 2 2 2 2 2 2 2 2 2 2 2 2 2 3 2 2 2 1 1 1 1 1 1 1
1 1 1 2 1 1 1 1 1 1 1 1 1 1 1 1 1 1 1 2 2 2 2 2 2 2 2 2 2 2 2 2 2 2 2 2 1 1 1 1 1 1 1
0 1 1 1 1 1 1 1 1 1 1 1 1 1 1 1 1 1 1 2 2 2 2 2 3 3 3 3 3 3 2 2 2 2 2 2 1 1 1 1 1 1 1
Wind_Speed
15 19 21 17 16 15 14 14 14 14 14 14 14 14 14 13 12 12 11 10 9 8 8 8 8 9 9 9 9 10 10 10 11 11 11 11 10 10 11 10 9 12 13
18 20 22 18 17 16 15 14 13 13 14 14 14 14 13 13 12 11 10 9 9 8 8 8 8 8 8 9 9 10 10 10 10 10 10 10 10 9 8 6 4 11 11
19 20 21 18 17 16 15 14 14 14 13 13 13 13 13 12 11 11 10 9 8 8 7 8 7 8 8 8 9 9 9 8 8 8 8 9 10 8 7 7 10 12 11
20 19 19 20 18 17 16 15 14 14 13 13 13 12 12 11 11 10 9 9 8 7 7 7 7 7 7 7 8 8 8 7 7 7 7 7 9 10 7 8 9 10 10
18 18 19 20 18 17 16 15 14 14 13 13 12 12 11 11 10 10 9 8 8 7 7 7 7 7 7 7 7 7 7 7 6 9 5 5 7 10 8 8 8 9 9
18 17 20 20 18 17 16 15 14 14 13 12 12 11 11 10 10 9 9 8 8 7 7 7 7 7 7 7 7 7 6 6 8 7 5 5 6 10 8 8 9 8 9
18 16 20 19 18 17 16 15 14 13 13 12 11 11 10 10 10 9 9 9 8 7 7 7 7 7 7 7 7 7 7 7 9 4 5 5 5 9 8 9 9 9 9
16 16 18 18 17 16 15 15 14 13 12 12 11 11 10 9 9 9 9 9 8 8 8 7 7 8 8 8 8 8 8 9 10 7 7 6 7 7 8 9 10 10 10
14 14 15 17 16 15 14 14 13 13 12 11 11 10 10 9 9 9 9 9 9 9 8 8 9 9 9 9 10 10 10 10 11 7 8 6 10 8 9 10 11 12 12
12 12 13 14 14 14 14 14 12 12 12 11 10 10 10 10 10 10 11 11 10 10 10 10 10 11 11 11 11 11 11 11 13 11 7 6 12 10 10 11 12 13 13
12 11 11 12 11 11 12 13 13 12 12 11 11 12 10 10 11 11 13 10 11 11 11 12 12 12 12 13 14 13 12 10 12 9 8 8 12 11 11 12 13 14 14
13 12 10 10 10 10 8 8 9 10 10 10 9 10 10 8 7 8 5 8 11 12 13 14 13 13 13 10 13 14 10 12 11 8 7 10 11 12 13 13 13 14 15
12 12 10 9 8 9 7 6 5 5 5 8 10 9 8 7 6 7 6 8 10 13 11 11 13 11 10 9 7 9 11 10 7 7 7 13 13 14 15 15 14 14 15
11 11 10 10 9 8 7 5 5 5 5 6 8 10 8 6 7 6 6 7 6 6 7 8 7 9 10 10 10 10 11 8 7 6 6 13 13 14 15 15 15 15 15
10 10 10 9 8 7 6 5 6 6 6 7 6 7 8 7 7 7 6 6 7 6 7 7 8 9 9 10 10 11 11 11 10 9 6 12 14 14 16 16 16 16 16
8 8 7 8 8 7 7 7 6 6 6 6 6 7 8 7 7 7 7 7 8 7 7 7 9 8 8 8 10 10 11 11 10 10 9 10 15 15 15 16 16 15 16
4 5 6 6 7 7 7 7 6 6 6 6 6 7 8 8 8 8 7 8 7 7 7 7 8 8 8 8 9 10 9 10 10 10 10 8 9 15 16 16 15 15 16
2 3 2 3 4 4 4 4 4 5 5 5 5 6 7 8 9 8 8 7 6 6 6 5 6 7 7 7 7 7 8 7 10 10 10 9 9 8 12 16 15 14 16
4 3 2 0 1 1 2 3 4 3 4 4 4 4 5 7 9 8 7 6 6 5 6 6 6 6 6 6 7 7 7 8 8 9 10 10 9 9 8 10 14 13 14
5 4 3 2 2 1 1 1 2 2 3 3 4 5 6 6 8 7 6 5 6 5 5 5 6 6 6 6 7 6 6 7 6 7 8 9 9 10 11 10 9 11 14
6 4 3 3 3 1 1 2 2 2 2 3 3 4 6 6 6 6 5 5 6 6 6 7 7 8 7 5 6 6 7 8 7 6 7 7 8 8 8 8 8 7 8
6 5 4 3 2 1 1 1 2 3 3 2 2 3 4 5 5 5 5 5 6 5 7 7 7 7 6 5 6 5 5 6 6 6 5 6 6 6 7 8 7 6 7
6 5 4 4 2 2 2 0 1 1 2 2 3 3 4 5 5 4 4 5 5 7 6 8 8 10 7 6 7 6 5 4 3 5 5 5 5 5 6 5 7 7 7
4 3 3 2 2 2 1 1 1 2 2 2 2 2 3 3 4 4 5 5 5 6 6 8 9 8 9 8 6 6 6 4 5 4 6 6 6 6 6 5 6 6 8
2 1 1 1 2 2 3 2 3 3 2 2 2 2 3 3 3 4 4 4 5 6 6 7 7 9 8 8 7 6 7 6 8 7 5 5 6 6 6 6 5 5 6
2 2 2 2 2 3 3 3 4 4 4 4 4 4 4 3 3 3 4 4 5 5 6 7 7 9 8 8 7 7 7 7 8 8 8 7 6 5 5 4 5 5 5
Wind_Direction
159 150 150 162 163 160 157 155 155 155 157 159 159 157 156 157 157 156 155 152 146 140 130 120 117 117 117 117 118 117 117 116 117 117 116 114 114 115 118 129 145 114 115
152 147 152 161 163 162 159 156 154 154 156 158 159 159 158 159 158 159 159 157 154 147 137 127 122 120 118 119 121 122 123 124 124 123 128 126 121 120 124 128 71 108 126
149 147 156 162 164 163 161 158 157 158 158 158 159 161 162 161 161 162 164 163 160 153 144 137 132 128 125 125 126 129 131 131 130 137 174 151 127 129 130 118 104 123 130
149 151 159 160 165 165 163 162 161 162 161 161 161 162 164 165 166 168 168 166 164 160 155 148 143 138 135 134 136 138 140 141 143 178 191 129 134 133 143 137 135 139 140
151 154 152 161 166 166 165 165 165 165 164 164 165 166 168 170 172 174 174 173 173 170 165 162 157 153 149 149 148 149 153 156 166 221 136 136 128 135 156 155 155 152 150
155 157 151 165 167 169 168 168 168 168 168 168 168 170 173 176 179 182 183 182 183 181 178 176 173 169 167 165 165 167 169 171 204 198 150 171 138 142 167 171 173 170 164
159 157 153 167 169 171 171 172 172 172 172 173 174 176 180 183 187 190 190 191 193 194 192 190 187 185 184 184 183 185 189 199 237 190 181 187 132 142 179 185 186 184 181
161 160 151 166 172 174 175 176 176 176 177 179 182 185 189 193 197 200 200 201 203 206 206 205 204 200 198 198 199 201 204 222 229 215 208 200 133 162 199 202 199 195 192
165 162 159 168 174 178 180 181 180 181 183 186 191 195 199 204 209 213 214 215 216 217 218 219 220 218 214 211 211 213 214 226 252 229 218 209 148 183 210 214 209 204 201
169 170 169 173 176 181 183 185 188 189 190 194 199 204 209 215 219 221 224 216 224 226 227 228 228 227 224 221 219 219 221 225 238 236 223 187 154 193 216 220 217 210 207
177 178 181 175 181 190 192 178 189 195 198 202 205 208 217 224 220 211 222 210 222 231 234 234 233 232 231 224 223 222 222 233 229 235 226 159 166 201 219 223 220 215 211
180 183 187 183 187 194 201 182 203 204 196 212 215 208 215 226 238 242 194 210 232 239 241 239 240 237 235 230 214 213 226 228 242 228 214 159 185 211 222 226 224 219 215
180 185 186 188 198 203 202 202 210 216 206 215 221 221 230 236 232 238 229 207 221 231 236 229 228 232 231 232 230 216 229 234 230 235 210 172 197 216 223 225 226 223 220
182 187 187 189 196 209 219 215 219 223 219 226 215 222 225 230 242 242 240 242 232 229 233 241 238 235 239 240 237 238 237 236 237 236 213 180 201 218 225 226 227 226 222
182 189 188 191 196 204 216 232 230 234 234 234 239 230 236 235 239 241 243 246 249 246 238 239 243 245 245 244 243 237 240 241 242 239 221 188 203 217 224 227 228 227 223
182 188 192 196 199 206 214 223 233 240 237 247 241 245 244 247 247 246 245 243 245 245 249 253 253 250 249 247 246 243 242 243 240 239 241 208 204 214 222 227 228 226 225
177 179 194 203 208 213 228 235 239 244 248 246 246 245 245 249 249 247 248 246 246 246 244 248 256 255 250 244 243 246 244 245 246 242 246 247 223 208 214 222 227 226 224
107 132 177 206 202 216 235 253 262 264 260 255 254 251 243 246 250 249 245 246 247 248 246 243 252 253 252 254 251 250 249 243 246 244 242 239 244 238 210 211 222 226 225
75 87 108 107 173 207 240 245 254 266 276 274 273 268 260 254 248 243 244 244 248 249 249 251 244 250 250 251 251 243 247 246 245 245 245 245 240 242 243 201 206 220 225
73 77 78 77 63 62 15 297 287 295 293 284 277 274 274 265 250 240 236 241 249 245 244 247 255 249 255 250 255 254 250 252 248 246 246 243 238 236 236 236 213 210 213
63 66 64 61 62 64 39 325 307 314 307 296 282 279 271 270 258 242 243 231 239 238 240 240 242 238 241 243 249 246 236 234 238 239 238 245 233 232 236 234 237 234 204
61 54 53 53 72 40 52 326 295 311 301 286 305 320 304 287 267 241 233 239 236 239 237 234 234 246 237 224 245 253 242 209 209 223 221 224 234 227 224 222 228 230 247
59 53 48 42 41 32 22 24 288 267 282 323 342 335 322 307 299 286 259 253 252 247 234 230 226 233 241 229 231 249 255 247 208 189 213 216 218 229 231 222 224 225 230
57 47 39 32 31 18 343 356 347 328 329 337 313 323 322 314 317 308 288 270 258 254 244 235 228 231 237 236 219 232 257 297 267 215 197 196 205 220 235 241 235 224 228
43 31 11 2 351 337 321 309 293 305 312 308 298 295 288 292 293 294 290 285 271 264 259 253 245 240 235 241 235 220 217 221 240 260 235 206 208 214 215 227 239 241 231
323 310 306 308 302 299 293 293 289 296 296 296 289 289 281 276 269 279 284 284 275 273 267 259 254 244 244 244 248 240 227 222 222 230 239 231 227 220 216 230 237 230 227